This is the latest recevied weather packets stored in our database for station/object ZL2IH. If no packets are shown the sender has not sent any weather packets the latest 10 day(s).
| Time | Temp. | Humidity | Pressure | Rain* | Wind** | Luminosity | Snow |
|---|---|---|---|---|---|---|---|
| 1777431616 | 17.22° C | 100% | 1028 hPa | 0 mm | - | - | - |
| 1777431017 | 17.22° C | 100% | 1028 hPa | 0 mm | - | - | - |
| 1777428037 | 16.11° C | 100% | 1028.3 hPa | 0 mm | - | - | - |
| 1777427416 | 16.11° C | 100% | 1028.4 hPa | 0 mm | - | - | - |
| 1777424459 | 15.56° C | 100% | 1028.8 hPa | 0 mm | - | - | - |
| 1777423219 | 16.11° C | 100% | 1029 hPa | 0 mm | - | - | - |
| 1777420838 | 15.56° C | 100% | 1029.3 hPa | 0 mm | - | - | - |
| 1777418418 | 16.11° C | 100% | 1029.6 hPa | 0 mm | - | - | - |
| 1777415418 | 15.56° C | 100% | 1029.4 hPa | 0 mm | - | - | - |
| 1777411218 | 15° C | 100% | 1029.4 hPa | 0 mm | - | - | - |
| 1777410619 | 14.44° C | 100% | 1029.3 hPa | 0 mm | - | - | - |
| 1777410018 | 13.89° C | 100% | 1029.3 hPa | 0 mm | - | - | - |
| 1777407018 | 12.78° C | 100% | 1029 hPa | 0 mm | - | - | - |
| 1777398018 | 11.11° C | 100% | 1028.3 hPa | 0 mm | - | - | - |
| 1777395618 | 11.11° C | 100% | 1028.2 hPa | 0 mm | - | - | - |
| 1777393818 | 11.11° C | 100% | 1028.1 hPa | 0 mm | - | - | - |
| 1777391418 | 10.56° C | 100% | 1028.1 hPa | 0 mm | - | - | - |
| 1777390818 | 10° C | 100% | 1028.1 hPa | 0 mm | - | - | - |
| 1777384837 | 10° C | 100% | 1028.4 hPa | 0 mm | - | - | - |
| 1777383617 | 10.56° C | 100% | 1028.4 hPa | 0 mm | - | - | - |
| 1777374018 | 10.56° C | 100% | 1028.5 hPa | 0 mm | - | - | - |
| 1777368017 | 10.56° C | 100% | 1027.8 hPa | 0 mm | - | - | - |
| 1777364437 | 11.11° C | 100% | 1027.2 hPa | 0 mm | - | - | - |
| 1777359617 | 12.22° C | 100% | 1026.8 hPa | 0 mm | - | - | - |
| 1777356016 | 13.33° C | 100% | 1026.4 hPa | 0 mm | - | - | - |
* Rain latest hour (hover to see other rain measurements)
** Current wind speed in m/s (hover to see current wind gust speed)